Address 0xc3927ca33d847a7e8fbd6b429306760391031b60

Overview

My Name Tag:
Not Available

Txn Hash Method
Block
From
To
Value [Txn Fee]
0x22254bb2690934c01bf88235df38026f3e368415b773be7a4046d73614a8f9a9Update Min Unloc...123180002021-09-13 2:02:3212 days 11 hrs ago0xc3927ca33d847a7e8fbd6b429306760391031b60OUT 0xb8d8383f958c455eb853c3540e141cf130cd65630 BNB0.00042666
0xb76ad56f1275083d71d8aa9a6c2bc90ba0631ee19afa5e7ca8c3b94dafa66da2Update Min Unloc...119279312021-08-30 10:40:3326 days 2 hrs ago0xc3927ca33d847a7e8fbd6b429306760391031b60OUT 0xb8d8383f958c455eb853c3540e141cf130cd65630 BNB0.00013821
0xb7fb6ef565872c888721af06b15046812a0953ef73be97db394391d89fe566c70x60806040119202412021-08-30 4:16:0326 days 9 hrs ago0xc3927ca33d847a7e8fbd6b429306760391031b60OUT Contract Creation0 BNB0.02479779
0x5591470351adc7a49f63057d53e7750a61d3e1de5b7cc794c1d436c775fa7e15Unlock114609242021-08-14 2:51:4442 days 10 hrs ago0xc3927ca33d847a7e8fbd6b429306760391031b60OUT 0x73e3027eca24615aa1064a0aa094561c8b456cf50 BNB0.00024803
0x61fab5d2f029fd8a8cefdfbd2ce56c1f59570e47de55ab85fca7000abcbf032dUnlock114609012021-08-14 2:50:3542 days 10 hrs ago0xc3927ca33d847a7e8fbd6b429306760391031b60OUT 0x73e3027eca24615aa1064a0aa094561c8b456cf50 BNB0.00024803
0x148c8d047a454edb84ca53fb7293f68a827b84a9bda85700d02c71ce1a15b4b4Create114608922021-08-14 2:50:0842 days 10 hrs ago0xc3927ca33d847a7e8fbd6b429306760391031b60OUT 0x73e3027eca24615aa1064a0aa094561c8b456cf50.0004 BNB0.00990029
0xc3be20792ae22585beba755e12523fe19954fa741f1df133942f2eea6fd68726Approve114608852021-08-14 2:49:4742 days 10 hrs ago0xc3927ca33d847a7e8fbd6b429306760391031b60OUT 0x28afeb404743afdf9009258dfeccaf48bd446d8d0 BNB0.0004407
0x8c08bbb361e79d192b1f61cecc0942ddd76e592d1f1ee9f0546195180c6af94fUnlock114607842021-08-14 2:44:4442 days 10 hrs ago0xc3927ca33d847a7e8fbd6b429306760391031b60OUT 0x73e3027eca24615aa1064a0aa094561c8b456cf50 BNB0.00024803
0x3065b22b868b827b8689a6a2a2eadfe3a29c0f4ebdb3116d27ae768a43b1d3abCreate114607622021-08-14 2:43:3842 days 10 hrs ago0xc3927ca33d847a7e8fbd6b429306760391031b60OUT 0x73e3027eca24615aa1064a0aa094561c8b456cf50.0004 BNB0.00990029
0x50f46ae80e8ab201396c493d35d9211345a742842abe470fc15205d621c14dafApprove114607362021-08-14 2:42:2042 days 10 hrs ago0xc3927ca33d847a7e8fbd6b429306760391031b60OUT 0x28afeb404743afdf9009258dfeccaf48bd446d8d0 BNB0.0002907
0x7cb321ca830e1e5021550bd12c1d671077ab6120e890218f1e979a8d5ec5ec0fApprove114607042021-08-14 2:40:4442 days 10 hrs ago0xc3927ca33d847a7e8fbd6b429306760391031b60OUT 0x28afeb404743afdf9009258dfeccaf48bd446d8d0 BNB0.00029082
0x7f321b1b02f817c99c4c3cd631651825a515241836b1db0c17dda7e38c9647fbCreate114466762021-08-13 14:59:1442 days 22 hrs ago0xc3927ca33d847a7e8fbd6b429306760391031b60OUT 0x73e3027eca24615aa1064a0aa094561c8b456cf50.0004 BNB0.01005029
0x4ae8b934d31fe5d4c8725f4add7a153d9644a2fc35ec97091c2dbd35440d6348Create114465772021-08-13 14:54:1742 days 22 hrs ago0xc3927ca33d847a7e8fbd6b429306760391031b60OUT 0x73e3027eca24615aa1064a0aa094561c8b456cf50.0004 BNB0.01005017
0x96e8e25fbad041686a1c0afa4471fb72af972046f060b053fa78f9995324f321Create114464802021-08-13 14:49:2642 days 22 hrs ago0xc3927ca33d847a7e8fbd6b429306760391031b60OUT 0x73e3027eca24615aa1064a0aa094561c8b456cf50.0004 BNB0.01005029
0x7e9c75d58a28e4921e0221ec7b790a27e20b10940e5d8a1cab3ddac32a7653d4Create114463962021-08-13 14:45:1342 days 22 hrs ago0xc3927ca33d847a7e8fbd6b429306760391031b60OUT 0x73e3027eca24615aa1064a0aa094561c8b456cf50.0004 BNB0.01005017
0x6fbb7fdefc6476006371bc975eb41f174bbcfc80e92ff427b4d0ae4c150ff899Create114463672021-08-13 14:43:4642 days 22 hrs ago0xc3927ca33d847a7e8fbd6b429306760391031b60OUT 0x73e3027eca24615aa1064a0aa094561c8b456cf50.0004 BNB0.01005017
0xe26e64f5ae6b188cde3fda0aa6aa6843c54efcfbff2b092f4725956cdf04ff94Create114462962021-08-13 14:40:1342 days 22 hrs ago0xc3927ca33d847a7e8fbd6b429306760391031b60OUT 0x73e3027eca24615aa1064a0aa094561c8b456cf50.0004 BNB0.01005017
0xa7c2d869f81f41a8270a97454967d93c10ee9027246b36df5924b41d3c0efc23Create114461142021-08-13 14:31:0742 days 23 hrs ago0xc3927ca33d847a7e8fbd6b429306760391031b60OUT 0x73e3027eca24615aa1064a0aa094561c8b456cf50.0004 BNB0.01005017
0x82e2db10d699ed34f9ed00e117fe313213b233b59a635648fa75cc915a54dbf1Create114460592021-08-13 14:28:2242 days 23 hrs ago0xc3927ca33d847a7e8fbd6b429306760391031b60OUT 0x73e3027eca24615aa1064a0aa094561c8b456cf50.0004 BNB0.01005017
0x588d5f1877c8365b2235ebe6a790a8bc439f71810f506e857ec4b803b78e9f3cCreate114447242021-08-13 13:21:3743 days 15 mins ago0xc3927ca33d847a7e8fbd6b429306760391031b60OUT 0x73e3027eca24615aa1064a0aa094561c8b456cf50.0004 BNB0.01005017
0x011e56d4043997a7903e8e6aec4032dcfbb667528531cfea944268a10d8a1805Create114434972021-08-13 12:20:1643 days 1 hr ago0xc3927ca33d847a7e8fbd6b429306760391031b60OUT 0x73e3027eca24615aa1064a0aa094561c8b456cf50.0004 BNB0.01005017
0x886a5b73334e6cc2c7e6405c55085a7441098768deb82fea3593472b3eb95140Create114433172021-08-13 12:11:1643 days 1 hr ago0xc3927ca33d847a7e8fbd6b429306760391031b60OUT 0x73e3027eca24615aa1064a0aa094561c8b456cf50.0004 BNB0.01005029
0xbe6814d0a47e53a8afbb926efc6c507887edef945c012d542309c230936fb99cApprove114432202021-08-13 12:06:2543 days 1 hr ago0xc3927ca33d847a7e8fbd6b429306760391031b60OUT 0x28afeb404743afdf9009258dfeccaf48bd446d8d0 BNB0.00044082
0x8adf2f81255e8609d77394820025666178569eca518c77152196b42df5a46efbCreate114431712021-08-13 12:03:5843 days 1 hr ago0xc3927ca33d847a7e8fbd6b429306760391031b60OUT 0x73e3027eca24615aa1064a0aa094561c8b456cf50.0004 BNB0.00990041
0xab75c9d15b9fddfe3d5e6f2d3c2007061be4bc265a742893cde6d6970693cde0Create114431362021-08-13 12:02:1343 days 1 hr ago0xc3927ca33d847a7e8fbd6b429306760391031b60OUT 0x73e3027eca24615aa1064a0aa094561c8b456cf50.0004 BNB0.00494561
[ Download CSV Export 
Parent Txn Hash Block From To Value
Loading

Contract Name:
0 BNB

Compiler Version
0

Optimization Enabled:
0 BNB

Other Settings:
-NA-
Block Transaction Gas Used Reward
Age Block Fee Address BC Fee Address Voting Power Jailed Incoming
Block Uncle Number Difficulty Gas Used Reward
Loading